This is the latest recevied weather packets stored in our database for station/object SQ7IQO. If no packets are shown the sender has not sent any weather packets the latest 10 day(s).
| Time | Temp. | Humidity | Pressure | Rain* | Wind** | Luminosity | Snow |
|---|---|---|---|---|---|---|---|
| 1788017142 | 22.78° C | 60% | 1015.5 hPa | 0 mm | 1.34 m/s, ° | - | - |
| 1788017082 | 22.22° C | 60% | 1015.5 hPa | 0 mm | 0.89 m/s, ° | - | - |
| 1788017022 | 22.78° C | 61% | 1015.5 hPa | 0 mm | 1.34 m/s, ° | - | - |
| 1788016962 | 22.78° C | 59% | 1015.6 hPa | 0 mm | 0.89 m/s, ° | - | - |
| 1788016902 | 22.78° C | 59% | 1015.5 hPa | 0 mm | 0.89 m/s, ° | - | - |
| 1788016842 | 22.22° C | 60% | 1015.5 hPa | 0 mm | 0.89 m/s, ° | - | - |
| 1788016782 | 22.78° C | 60% | 1015.5 hPa | 0 mm | 1.79 m/s, ° | - | - |
| 1788016722 | 22.22° C | 62% | 1015.5 hPa | 0 mm | 1.79 m/s, ° | - | - |
| 1788016662 | 22.22° C | 62% | 1015.5 hPa | 0 mm | 0.89 m/s, ° | - | - |
| 1788016602 | 22.22° C | 61% | 1015.5 hPa | 0 mm | 0.89 m/s, ° | - | - |
| 1788016542 | 22.78° C | 61% | 1015.5 hPa | 0 mm | 0.89 m/s, ° | - | - |
| 1788016482 | 22.78° C | 62% | 1044.1 hPa | 0 mm | 0.89 m/s, ° | - | - |
| 1788016422 | 22.78° C | 61% | 1015.4 hPa | 0 mm | 0.89 m/s, ° | - | - |
| 1788016362 | 22.78° C | 62% | 1015.4 hPa | 0 mm | 1.34 m/s, ° | - | - |
| 1788016302 | 22.78° C | 61% | 1015.4 hPa | 0 mm | 0.89 m/s, ° | - | - |
| 1788016242 | 22.78° C | 61% | 1015.4 hPa | 0 mm | 0.45 m/s, ° | - | - |
| 1788016182 | 23.33° C | 59% | 1015.4 hPa | 0 mm | 0.89 m/s, ° | - | - |
| 1788016122 | 23.33° C | 59% | 1015.4 hPa | 0 mm | 0.89 m/s, ° | - | - |
| 1788016062 | 23.33° C | 60% | 1015.4 hPa | 0 mm | 0.45 m/s, ° | - | - |
| 1788016002 | 22.78° C | 62% | 1015.4 hPa | 0 mm | 0 m/s | - | - |
| 1788015942 | 22.78° C | 62% | 1023 hPa | 0 mm | 0.89 m/s, ° | - | - |
| 1788015882 | 22.78° C | 61% | 1015.4 hPa | 0 mm | 0.89 m/s, ° | - | - |
| 1788015822 | 23.33° C | 59% | 1015.5 hPa | 0 mm | 0.89 m/s, ° | - | - |
| 1788015762 | 23.33° C | 58% | 1015.4 hPa | 0 mm | 1.79 m/s, ° | - | - |
| 1788015702 | 23.33° C | 59% | 1015.4 hPa | 0 mm | 1.34 m/s, ° | - | - |
* Rain latest hour (hover to see other rain measurements)
** Current wind speed in m/s (hover to see current wind gust speed)